Location: Cary
(35.7910°N, 78.7810°W)
Time: 22:30:48
(UTC-05:00)

Tiangong 1 - Visible Passes

Search period start: 17 February 2018 00:00
Search period end: 27 February 2018 00:00
Orbit: 249 x 272 km, 42.8° (Epoch: 17 February)

Date Brightness Start Highest point End Pass type
(mag) Time Alt. Az. Time Alt. Az. Time Alt. Az.
17 Feb 1.8 05:47:52 26° N 05:48:18 28° NNE 05:50:22 10° E visible
18 Feb 1.0 05:43:04 41° N 05:43:13 42° NNE 05:45:26 10° E visible
19 Feb 0.6 05:38:06 65° E 05:38:06 65° E 05:40:09 10° ESE visible
20 Feb 1.7 05:33:00 32° SSE 05:33:00 32° SSE 05:34:28 10° SE visible
21 Feb 3.0 05:27:48 15° SSE 05:27:48 15° SSE 05:28:21 10° SSE visible
